TimeMDT,TemperatureF,Dew PointF,Humidity,Sea Level PressureIn,VisibilityMPH,Wind Direction,Wind SpeedMPH,Gust SpeedMPH,PrecipitationIn,Events,Conditions,WindDirDegrees,DateUTC
12:17 AM,77.0,41.0,28,30.10,10.0,SSW,11.5,-,N/A,,Clear,210,2013-08-21 06:17:00
12:37 AM,73.4,42.8,33,30.10,10.0,SW,9.2,-,N/A,,Clear,230,2013-08-21 06:37:00
12:57 AM,71.6,42.8,35,30.11,10.0,West,6.9,-,N/A,,Clear,260,2013-08-21 06:57:00
1:17 AM,69.8,42.8,38,30.11,10.0,WNW,4.6,-,N/A,,Clear,290,2013-08-21 07:17:00
1:37 AM,69.8,42.8,38,30.11,10.0,Calm,Calm,-,N/A,,Clear,0,2013-08-21 07:37:00
1:57 AM,69.8,44.6,40,30.11,10.0,Calm,Calm,-,N/A,,Clear,0,2013-08-21 07:57:00
2:17 AM,69.8,42.8,38,30.11,10.0,West,6.9,-,N/A,,Clear,260,2013-08-21 08:17:00
2:36 AM,69.8,42.8,38,30.11,10.0,West,11.5,-,N/A,,Clear,260,2013-08-21 08:36:00
2:57 AM,71.6,42.8,35,30.12,10.0,WSW,8.1,-,N/A,,Clear,250,2013-08-21 08:57:00
3:16 AM,69.8,42.8,38,30.12,10.0,West,10.4,-,N/A,,Clear,260,2013-08-21 09:16:00
3:36 AM,69.8,44.6,40,30.12,10.0,West,9.2,-,N/A,,Clear,270,2013-08-21 09:36:00
3:57 AM,69.8,44.6,40,30.12,10.0,West,8.1,-,N/A,,Clear,260,2013-08-21 09:57:00
4:17 AM,69.8,44.6,40,30.12,10.0,West,10.4,-,N/A,,Clear,260,2013-08-21 10:17:00
4:37 AM,69.8,44.6,40,30.12,10.0,West,8.1,-,N/A,,Clear,280,2013-08-21 10:37:00
4:57 AM,69.8,44.6,40,30.13,10.0,West,9.2,-,N/A,,Clear,260,2013-08-21 10:57:00
5:17 AM,68.0,44.6,43,30.14,10.0,WSW,9.2,-,N/A,,Clear,250,2013-08-21 11:17:00
5:37 AM,69.8,44.6,40,30.14,10.0,West,10.4,-,N/A,,Clear,260,2013-08-21 11:37:00
5:57 AM,69.8,46.4,43,30.15,10.0,WSW,5.8,-,N/A,,Clear,250,2013-08-21 11:57:00
6:17 AM,69.8,44.6,40,30.15,10.0,West,4.6,-,N/A,,Clear,260,2013-08-21 12:17:00
6:37 AM,69.8,46.4,43,30.15,10.0,WSW,9.2,-,N/A,,Clear,250,2013-08-21 12:37:00
6:53 AM,69.8,46.4,43,30.16,10.0,WSW,5.8,-,N/A,,Clear,240,2013-08-21 12:53:00
7:52 AM,75.2,46.4,36,30.17,40.0,WSW,5.8,-,N/A,,Mostly Cloudy,240,2013-08-21 13:52:00
9:50 AM,80.6,44.6,28,30.19,40.0,North,9.2,-,N/A,,Mostly Cloudy,10,2013-08-21 15:50:00
11:55 AM,89.6,46.4,22,30.19,40.0,North,12.7,23.0,N/A,,Mostly Cloudy,10,2013-08-21 17:55:00
1:47 PM,91.4,44.6,20,30.17,40.0,ENE,10.4,16.1,N/A,,Mostly Cloudy,70,2013-08-21 19:47:00
2:47 PM,91.4,44.6,20,30.15,40.0,NE,8.1,18.4,N/A,,Mostly Cloudy,40,2013-08-21 20:47:00
4:47 PM,91.4,44.6,20,30.14,40.0,ENE,16.1,-,N/A,,Mostly Cloudy,60,2013-08-21 22:47:00
5:47 PM,89.6,44.6,21,30.14,40.0,ENE,10.4,17.3,N/A,,Mostly Cloudy,60,2013-08-21 23:47:00
6:35 PM,86.0,44.6,23,30.14,40.0,ENE,6.9,-,N/A,Thunderstorm,Thunderstorm,60,2013-08-22 00:35:00
6:50 PM,86.0,44.6,23,30.15,40.0,North,3.5,-,N/A,Thunderstorm,Mostly Cloudy,10,2013-08-22 00:50:00
7:04 PM,80.6,50.0,34,30.16,40.0,WSW,25.3,-,N/A,Thunderstorm,Thunderstorm,250,2013-08-22 01:04:00
7:52 PM,68.0,59.0,73,30.16,10.0,West,17.3,-,N/A,Rain-Thunderstorm,Light Thunderstorms and Rain,260,2013-08-22 01:52:00
8:37 PM,69.8,51.8,53,30.18,7.0,North,10.4,25.3,N/A,Rain-Thunderstorm,Thunderstorms and Rain,360,2013-08-22 02:37:00
8:56 PM,73.4,50.0,44,30.18,10.0,NE,20.7,29.9,N/A,Rain,Light Rain,40,2013-08-22 02:56:00
9:17 PM,75.2,51.8,44,30.18,10.0,NE,15.0,24.2,N/A,,Overcast,40,2013-08-22 03:17:00
9:37 PM,73.4,53.6,50,30.19,10.0,ENE,10.4,-,N/A,,Scattered Clouds,70,2013-08-22 03:37:00
9:57 PM,73.4,53.6,50,30.18,10.0,East,5.8,-,N/A,,Clear,90,2013-08-22 03:57:00
10:17 PM,73.4,51.8,47,30.19,10.0,East,4.6,-,N/A,,Clear,100,2013-08-22 04:17:00
10:36 PM,69.8,55.4,60,30.20,10.0,NW,8.1,16.1,N/A,,Clear,310,2013-08-22 04:36:00
10:57 PM,68.0,55.4,64,30.21,10.0,NW,5.8,-,N/A,,Clear,310,2013-08-22 04:57:00
11:17 PM,68.0,57.2,68,30.22,10.0,NW,6.9,-,N/A,,Clear,310,2013-08-22 05:17:00
11:37 PM,68.0,57.2,68,30.22,10.0,NW,8.1,-,N/A,,Clear,310,2013-08-22 05:37:00
11:57 PM,68.0,57.2,68,30.22,10.0,NW,6.9,-,N/A,,Clear,320,2013-08-22 05:57:00